Regional Weather Roundup
Issued by NWS

Home | Current Version | Previous Version | Graphics & Text | Print | Product List | Glossary On
Versions: 1 2 3 4 5 6 7 8 9 10 11 12 13 14 15 16 17 18 19 20 21 22 23 24 25 26 27 28 29 30 31 32 33 34 35 36 37 38 39 40 41 42 43 44 45 46 47 48 49 50
064
ASUS44 KJAN 300210
RWRMS

MISSISSIPPI HOURLY WEATHER ROUNDUP
NATIONAL WEATHER SERVICE JACKSON MS
900 PM CDT MON SEP 29 2014

NOTE: "FAIR: INDICATES FEW OR NO CLOUDS BELOW 12,000 FEET WITH NO
SIGNIFICANT WEATHER AND/OR OBSTRUCTIONS TO VISIBILITY.

MSZ001>002-007>008-010>013-018>021-025>028-034>036-300300-
NORTHWEST MISSISSIPPI

CITY           SKY/WX    TMP DP  RH WIND       PRES   REMARKS
CLARKSDALE     FAIR      72  61  68 CALM      29.94R
CLEVELAND      FAIR      72  61  68 N3        29.92R
GREENWOOD      CLEAR     68  65  90 CALM      29.92R
GREENVILLE     CLEAR     71  58  63 N6        29.92R
GRENADA        FAIR      68  64  88 CALM      29.93R
OLIVE BRANCH   CLEAR     70  68  94 CALM      29.95R
OXFORD         FAIR      66  63  88 CALM      29.96R
TUNICA         CLEAR     68  61  77 CALM      29.94S
$$

MSZ003>006-009-014>017-022>024-029>033-037>039-300300-
NORTHEAST MISSISSIPPI

CITY           SKY/WX    TMP DP  RH WIND       PRES   REMARKS
COLUMBUS AFB   CLEAR     69  65  84 CALM      29.92R
CORINTH          N/A     66  61  82 CALM      29.94R
GOLDN TRIANGLE CLEAR     73  61  64 N5        29.91R
STARKVILLE     FAIR      68  63  83 CALM      29.92R
TUPELO         CLEAR     71  61  70 CALM      29.93R
$$

MSZ040-058-300300-
CENTRAL MISSISSIPPI

CITY           SKY/WX    TMP DP  RH WIND       PRES   REMARKS
JACKSON INTL   CLEAR     72  67  84 CALM      29.91R
JACKSON HAWKNS CLEAR     77  67  71 CALM      29.92R
MERIDIAN KEY   MOCLDY    72  68  87 CALM      29.91R
MERIDIAN NAS   MOCLDY    74  67  78 CALM      29.92R
RAYMOND        FAIR      70  64  83 CALM      29.91S HAZE
VICKSBURG      CLEAR     70  67  90 CALM      29.90R
$$

MSZ059>079-300300-
SOUTH MISSISSIPPI

CITY           SKY/WX    TMP DP  RH WIND       PRES   REMARKS
BROOKHAVEN     FAIR      72  70  94 CALM      29.93R
COLUMBIA       FAIR      72  72 100 CALM      29.89S
HATTIESBURG    MOCLDY    77  73  87 CALM      29.90R
MCCOMB         CLEAR     77  69  76 NE5       29.91R
NATCHEZ        MOCLDY    75  72  88 CALM      29.92R
PINE BELT      CLEAR     72  68  88 CALM      29.92R
$$

MSZ080>082-300300-
COASTAL MISSISSIPPI

CITY           SKY/WX    TMP DP  RH WIND       PRES   REMARKS
BAY ST LOUIS   PTCLDY    73  70  88 CALM      29.88S
BILOXI         MOCLDY    78  73  86 NE5       29.88S
PASCAGOULA     CLOUDY    75  72  90 CALM      29.89R
GULFPORT       CLOUDY    79  71  76 NE3       29.88R
$$



USA.gov is the U.S. government's official web portal to all federal, state and local government web resources and services.